Atlanta Fulton, GA

8:24 PM EST on November 18, 2019 (GMT -0500)
Fulton County-Brown

Weather History for KFTY - September, 2019

Change the Weather History Date:

Saturday, September 21, 2019

  Actual Average Record
Temperature  
Mean Temperature 72 °F 71 °F  
Max Temperature 87 °F 82 °F 95 °F (2010)
Min Temperature 57 °F 61 °F 48 °F (2006)
Degree Days  
Heating Degree Days 0 0  
Month to date heating degree days 0 0  
Since 1 July heating degree days 0 0  
Cooling Degree Days 7 7  
Month to date cooling degree days 320 196  
Year to date cooling degree days 2036 1633  
Growing Degree Days 22 (Base 50)    
Moisture  
Dew Point 57 °F    
Average Humidity 63    
Maximum Humidity 93    
Minimum Humidity 32    
Precipitation  
Precipitation 0.00 in 0.12 in 1.69 in (2002)
Month to date precipitation 1.61 2.64  
Year to date precipitation 31.90 38.06  
Sea Level Pressure  
Sea Level Pressure 30.25 in    
Wind  
Wind Speed 1 mph (East)    
Max Wind Speed 9 mph    
Max Gust Speed 15 mph    
Visibility 10 miles    
Events      
T = Trace of Precipitation, MM = Missing Value Source: NWS Daily Summary

Daily Weather History Graph

Daily Weather History Graph

Search for Another Location

Airport or City:

Astronomy

Sep. 21, 2019 Rise Set
Actual Time 7:25 AM EDT 7:36 PM EDT
Civil Twilight 7:00 AM EDT 8:01 PM EDT
Nautical Twilight 6:31 AM EDT 8:30 PM EDT
Astronomical Twilight 6:01 AM EDT 8:59 PM EDT
Moon No Moon Rise 2:12 PM EDT (9/21)
Length of Visible Light 13h 00m
Length of Day
12h 11m
Waning Gibbous, 55% of the Moon is Illuminated
Sep 21
Waning Gibbous
Sep 21
Last Quarter
Sep 28
New
Oct 5
First Quarter
Oct 13
Full

Hourly Weather History & Observations

Time (EDT) Temp. Heat Index Dew Point Humidity Pressure Visibility Wind Dir Wind Speed Gust Speed Precip Events Conditions
12:53 AM 62.1 °F - 55.0 °F 78% 30.26 in 10.0 mi NE 3.5 mph - N/A   Clear
1:53 AM 60.1 °F - 55.0 °F 83% 30.27 in 10.0 mi Calm Calm - N/A   Clear
2:53 AM 59.0 °F - 55.0 °F 87% 30.26 in 10.0 mi Calm Calm - N/A   Clear
4:53 AM 59.0 °F - 55.0 °F 87% 30.26 in 10.0 mi Calm Calm - N/A   Clear
5:53 AM 57.0 °F - 54.0 °F 89% 30.27 in 10.0 mi Calm Calm - N/A   Clear
6:53 AM 57.9 °F - 55.0 °F 90% 30.29 in 10.0 mi Calm Calm - N/A   Clear
7:53 AM 57.0 °F - 55.0 °F 93% 30.31 in 10.0 mi Calm Calm - N/A   Clear
8:53 AM 64.9 °F - 57.0 °F 75% 30.32 in 10.0 mi Calm Calm - N/A   Clear
9:53 AM 71.1 °F - 59.0 °F 66% 30.32 in 10.0 mi Calm Calm - N/A   Clear
10:53 AM 77.0 °F - 63.0 °F 62% 30.32 in 10.0 mi WSW 4.6 mph - N/A   Clear
11:53 AM 79.0 °F - 61.0 °F 54% 30.30 in 10.0 mi East 5.8 mph - N/A   Clear
12:53 PM 82.0 °F 82.7 °F 61.0 °F 49% 30.28 in 10.0 mi Variable 3.5 mph - N/A   Scattered Clouds
1:53 PM 84.0 °F 83.3 °F 57.0 °F 40% 30.25 in 10.0 mi NNE 5.8 mph - N/A   Mostly Cloudy
2:53 PM 84.9 °F 83.3 °F 54.0 °F 34% 30.23 in 10.0 mi Variable 5.8 mph - N/A   Clear
3:53 PM 84.9 °F 83.6 °F 55.0 °F 36% 30.20 in 10.0 mi Calm Calm - N/A   Partly Cloudy
4:53 PM 87.1 °F 85.3 °F 55.0 °F 33% 30.18 in 10.0 mi Calm Calm - N/A   Clear
5:53 PM 86.0 °F 84.2 °F 54.0 °F 33% 30.17 in 10.0 mi Calm Calm - N/A   Clear
6:53 PM 84.9 °F 83.2 °F 53.1 °F 33% 30.17 in 10.0 mi SSE 3.5 mph - N/A   Clear
7:53 PM 75.0 °F - 60.1 °F 60% 30.18 in 9.0 mi Calm Calm - N/A   Clear
9:53 PM 70.0 °F - 60.1 °F 71% 30.20 in 10.0 mi Calm Calm - N/A   Clear
10:53 PM 68.0 °F - 60.1 °F 76% 30.21 in 10.0 mi Calm Calm - N/A   Clear
11:53 PM 64.9 °F - 60.1 °F 84% 30.22 in 10.0 mi Calm Calm - N/A   Clear